Location: Namasale
(1.5000°N, 32.6167°E)
Time: 22:50:46
(UTC+00:00)

Vanguard 3 - Pass Details

Date: 19 April 2021
Orbit: 507 x 3262 km, 33.4° (Epoch: 16 May)

Event Time Altitude Azimuth Distance (km) Brightness Sun altitude
Rises 18:52:41 0° 232° (SW) 6,724 12.2 -44.4°
Reaches altitude 10° 18:57:44 10° 231° (SW) 5,370 11.5 -45.6°
Enters shadow 19:07:21 43° 224° (SW) 2,683 9.7 -47.9°
